Weather History for KELO - October, 2014

Change the Weather History Date:

Saturday, October 4, 2014

  Actual Average Record
Temperature  
Mean Temperature 38 °F -  
Max Temperature 42 °F 55 °F 78 °F (2011)
Min Temperature 35 °F 35 °F 24 °F (2008)
Degree Days  
Heating Degree Days 26    
Moisture  
Dew Point 33 °F    
Average Humidity 84    
Maximum Humidity 100    
Minimum Humidity 61    
Precipitation  
Precipitation 0.01 in - - ()
Sea Level Pressure  
Sea Level Pressure 29.58 in    
Wind  
Wind Speed 11 mph (WNW)    
Max Wind Speed 17 mph    
Max Gust Speed 31 mph    
Visibility 10 miles    
Events Rain    
Averages and records for this station are not official NWS values.
T = Trace of Precipitation, MM = Missing Value Source: NWS Daily Summary

Daily Weather History Graph

Daily Weather History Graph

Search for Another Location

Airport or City:

Trip Planner

Search our weather history database for the weather conditions in past years. The results will help you decide how hot, cold, wet, or windy it might be!

Date:

Astronomy

Oct. 04, 2014 Rise Set
Actual Time 7:10 AM CDT 6:40 PM CDT
Civil Twilight 6:39 AM CDT 7:11 PM CDT
Nautical Twilight 6:03 AM CDT 7:47 PM CDT
Astronomical Twilight 5:27 AM CDT 8:23 PM CDT
Moon 4:33 PM CDT (10/4) 2:20 AM CDT (10/4)
Length of Visible Light 12h 31m
Length of Day
11h 29m
Waxing Gibbous, 81% of the Moon is Illuminated
Oct 4
Waxing Gibbous
Oct 8
Full
Oct 15
Last Quarter
Oct 23
New
Oct 30
First Quarter

Hourly Weather History & Observations

Time (CDT) Temp. Windchill Dew Point Humidity Pressure Visibility Wind Dir Wind Speed Gust Speed Precip Events Conditions
12:12 AM 39.2 °F 35.0 °F 37.4 °F 93% 29.58 in 10.0 mi NW 5.8 mph - N/A Rain Light Rain
12:33 AM 39.2 °F 33.6 °F 37.4 °F 93% 29.57 in 10.0 mi NW 8.1 mph - N/A   Drizzle
12:52 AM 39.2 °F 33.6 °F 37.4 °F 93% 29.58 in 5.0 mi NW 8.1 mph 16.1 mph N/A Rain Light Rain
1:13 AM 39.2 °F 33.0 °F 37.4 °F 93% 29.58 in 10.0 mi NW 9.2 mph 16.1 mph N/A   Overcast
1:33 AM 39.2 °F 32.5 °F 37.4 °F 93% 29.58 in 10.0 mi NW 10.4 mph 23.0 mph N/A   Overcast
1:52 AM 39.2 °F 32.5 °F 37.4 °F 93% 29.58 in 10.0 mi WNW 10.4 mph 16.1 mph N/A   Overcast
2:13 AM 39.2 °F 32.5 °F 37.4 °F 93% 29.58 in 10.0 mi NW 10.4 mph 19.6 mph N/A   Overcast
2:33 AM 39.2 °F 33.6 °F 37.4 °F 93% 29.59 in 10.0 mi NNW 8.1 mph - N/A   Overcast
2:52 AM 39.2 °F 31.2 °F 35.6 °F 87% 29.59 in 10.0 mi NW 13.8 mph 20.7 mph N/A   Overcast
3:13 AM 39.2 °F 33.0 °F 35.6 °F 87% 29.59 in 10.0 mi NW 9.2 mph 25.3 mph N/A   Overcast
3:33 AM 39.2 °F 31.2 °F 35.6 °F 87% 29.58 in 10.0 mi NW 13.8 mph 21.9 mph N/A   Overcast
3:52 AM 37.4 °F 29.3 °F 35.6 °F 93% 29.59 in 10.0 mi NW 12.7 mph 20.7 mph N/A   Overcast
4:13 AM 37.4 °F 30.8 °F 33.8 °F 87% 29.58 in 10.0 mi NW 9.2 mph 21.9 mph N/A   Overcast
4:33 AM 37.4 °F 30.8 °F 35.6 °F 93% 29.59 in 10.0 mi NW 9.2 mph 18.4 mph N/A   Overcast
4:52 AM 37.4 °F 28.5 °F 33.8 °F 87% 29.59 in 10.0 mi NW 15.0 mph 23.0 mph N/A   Overcast
5:13 AM 37.4 °F 29.8 °F 33.8 °F 87% 29.59 in 10.0 mi NW 11.5 mph 19.6 mph N/A   Overcast
5:33 AM 37.4 °F 29.8 °F 33.8 °F 87% 29.59 in 10.0 mi NW 11.5 mph 25.3 mph N/A   Overcast
5:53 AM 37.4 °F 28.9 °F 33.8 °F 87% 29.59 in 10.0 mi NW 13.8 mph 24.2 mph N/A   Overcast
6:12 AM 37.4 °F 30.8 °F 33.8 °F 87% 29.59 in 10.0 mi NW 9.2 mph 16.1 mph N/A   Drizzle
6:33 AM 37.4 °F 30.8 °F 35.6 °F 93% 29.59 in 10.0 mi WNW 9.2 mph 18.4 mph N/A   Overcast
6:53 AM 37.4 °F 29.8 °F 33.8 °F 87% 29.60 in 10.0 mi NW 11.5 mph 17.3 mph N/A   Mostly Cloudy
7:12 AM 35.6 °F 28.6 °F 32.0 °F 87% 29.60 in 10.0 mi NW 9.2 mph 23.0 mph N/A   Mostly Cloudy
7:33 AM 35.6 °F 27.1 °F 32.0 °F 87% 29.60 in 10.0 mi NNW 12.7 mph 18.4 mph N/A   Mostly Cloudy
7:52 AM 35.6 °F 27.5 °F 32.0 °F 87% 29.60 in 10.0 mi NW 11.5 mph 21.9 mph N/A   Mostly Cloudy
8:13 AM 37.4 °F 29.8 °F 33.8 °F 87% 29.60 in 10.0 mi WNW 11.5 mph 20.7 mph N/A   Mostly Cloudy
8:33 AM 35.6 °F 28.6 °F 33.8 °F 93% 29.60 in 4.0 mi WNW 9.2 mph - N/A   Light Drizzle
8:52 AM 35.6 °F 29.9 °F 35.6 °F 100% 29.59 in 5.0 mi WNW 6.9 mph - N/A Rain Rain
9:13 AM 35.6 °F 29.2 °F 33.8 °F 93% 29.59 in 10.0 mi WNW 8.1 mph 17.3 mph N/A   Overcast
9:31 AM 35.6 °F 28.6 °F 33.8 °F 93% 29.60 in 7.0 mi WNW 9.2 mph 16.1 mph N/A Rain Light Rain
9:53 AM 37.4 °F 29.3 °F 33.8 °F 87% 29.60 in 10.0 mi WNW 12.7 mph 24.2 mph N/A   Light Drizzle
10:13 AM 35.6 °F 27.5 °F 33.8 °F 93% 29.60 in 7.0 mi NW 11.5 mph 21.9 mph N/A Rain Light Rain
10:32 AM 37.4 °F 29.8 °F 33.8 °F 87% 29.60 in 10.0 mi NW 11.5 mph 19.6 mph N/A   Overcast
10:53 AM 37.4 °F 28.5 °F 33.8 °F 87% 29.60 in 10.0 mi WNW 15.0 mph 24.2 mph N/A Rain Light Rain
11:13 AM 35.6 °F 28.0 °F 33.8 °F 93% 29.61 in 3.0 mi WNW 10.4 mph 20.7 mph N/A Rain Rain
11:32 AM 35.6 °F 28.6 °F 33.8 °F 93% 29.61 in 10.0 mi WNW 9.2 mph - 0.01 in Rain Light Rain
11:53 AM 37.4 °F 28.5 °F 33.8 °F 87% 29.61 in 10.0 mi WNW 15.0 mph 24.2 mph 0.01 in   Mostly Cloudy
12:13 PM 37.4 °F 29.8 °F 33.8 °F 87% 29.61 in 10.0 mi WNW 11.5 mph 19.6 mph N/A   Drizzle
12:32 PM 37.4 °F 28.2 °F 33.8 °F 87% 29.60 in 10.0 mi West 16.1 mph 26.5 mph N/A Rain Light Rain
12:53 PM 37.4 °F 30.3 °F 33.8 °F 87% 29.60 in 10.0 mi WNW 10.4 mph 17.3 mph N/A   Overcast
1:13 PM 37.4 °F 30.8 °F 32.0 °F 81% 29.59 in 10.0 mi West 9.2 mph 23.0 mph N/A   Overcast
1:32 PM 39.2 °F 32.5 °F 32.0 °F 75% 29.59 in 10.0 mi WNW 10.4 mph 21.9 mph N/A   Overcast
1:53 PM 39.2 °F 30.5 °F 30.2 °F 70% 29.59 in 10.0 mi WNW 16.1 mph 29.9 mph N/A   Overcast
2:13 PM 42.8 °F 35.4 °F 30.2 °F 61% 29.57 in 10.0 mi WNW 15.0 mph 26.5 mph N/A   Overcast
2:32 PM 41.0 °F 32.5 °F 30.2 °F 65% 29.58 in 10.0 mi WNW 17.3 mph 26.5 mph N/A   Overcast
2:53 PM 41.0 °F 33.1 °F 30.2 °F 65% 29.58 in 10.0 mi West 15.0 mph 23.0 mph N/A   Overcast
3:13 PM 41.0 °F 32.8 °F 30.2 °F 65% 29.58 in 10.0 mi WNW 16.1 mph 31.1 mph N/A   Overcast
3:32 PM 41.0 °F 33.5 °F 30.2 °F 65% 29.58 in 10.0 mi West 13.8 mph 26.5 mph N/A   Overcast
3:53 PM 42.8 °F 34.8 °F 33.8 °F 70% 29.57 in 10.0 mi West 17.3 mph 23.0 mph N/A   Overcast
4:13 PM 41.0 °F 33.5 °F 32.0 °F 70% 29.56 in 10.0 mi WNW 13.8 mph 23.0 mph N/A   Mostly Cloudy
4:32 PM 41.0 °F 33.5 °F 32.0 °F 70% 29.57 in 10.0 mi WNW 13.8 mph 26.5 mph N/A   Mostly Cloudy
4:53 PM 39.2 °F 32.5 °F 33.8 °F 81% 29.57 in 10.0 mi NW 10.4 mph 24.2 mph N/A Rain Light Rain
5:13 PM 39.2 °F 30.8 °F 33.8 °F 81% 29.57 in 10.0 mi WNW 15.0 mph 23.0 mph N/A   Scattered Clouds
5:32 PM 39.2 °F 32.5 °F 33.8 °F 81% 29.56 in 10.0 mi West 10.4 mph 21.9 mph N/A   Scattered Clouds
5:53 PM 39.2 °F 32.5 °F 33.8 °F 81% 29.57 in 10.0 mi West 10.4 mph - N/A Rain Light Rain
6:13 PM 37.4 °F 30.8 °F 33.8 °F 87% 29.57 in 10.0 mi West 9.2 mph 17.3 mph N/A Rain Rain
6:32 PM 37.4 °F 30.8 °F 33.8 °F 87% 29.57 in 10.0 mi West 9.2 mph 17.3 mph N/A   Scattered Clouds
6:53 PM 37.4 °F 30.3 °F 33.8 °F 87% 29.57 in 10.0 mi WNW 10.4 mph 17.3 mph N/A   Scattered Clouds
7:12 PM 37.4 °F 30.3 °F 33.8 °F 87% 29.57 in 10.0 mi West 10.4 mph - N/A   Mostly Cloudy
7:33 PM 37.4 °F 30.3 °F 33.8 °F 87% 29.57 in 10.0 mi West 10.4 mph 19.6 mph N/A   Mostly Cloudy
7:52 PM 37.4 °F 30.8 °F 32.0 °F 81% 29.57 in 10.0 mi West 9.2 mph 18.4 mph N/A   Mostly Cloudy
8:13 PM 37.4 °F 30.3 °F 33.8 °F 87% 29.56 in 10.0 mi West 10.4 mph 17.3 mph N/A   Drizzle
8:33 PM 37.4 °F 28.5 °F 32.0 °F 81% 29.56 in 10.0 mi WNW 15.0 mph 21.9 mph N/A   Overcast
8:52 PM 37.4 °F 29.3 °F 30.2 °F 75% 29.56 in 10.0 mi West 12.7 mph 18.4 mph N/A   Overcast
9:13 PM 37.4 °F 29.8 °F 32.0 °F 81% 29.56 in 10.0 mi West 11.5 mph 20.7 mph N/A   Overcast
9:33 PM 37.4 °F 29.8 °F 30.2 °F 75% 29.55 in 10.0 mi West 11.5 mph 23.0 mph N/A   Overcast
9:52 PM 37.4 °F 29.3 °F 30.2 °F 75% 29.55 in 10.0 mi West 12.7 mph 21.9 mph N/A   Overcast
10:13 PM 37.4 °F 28.5 °F 30.2 °F 75% 29.55 in 10.0 mi West 15.0 mph 18.4 mph N/A   Overcast
10:33 PM 37.4 °F 29.3 °F 30.2 °F 75% 29.54 in 10.0 mi West 12.7 mph 19.6 mph N/A   Overcast
10:53 PM 35.6 °F 28.0 °F 30.2 °F 81% 29.54 in 10.0 mi West 10.4 mph 18.4 mph N/A   Overcast
11:13 PM 35.6 °F 27.5 °F 30.2 °F 81% 29.53 in 10.0 mi West 11.5 mph 19.6 mph N/A   Overcast
11:32 PM 35.6 °F 28.6 °F 30.2 °F 81% 29.52 in 10.0 mi West 9.2 mph 19.6 mph N/A   Overcast
11:53 PM 35.6 °F 27.1 °F 30.2 °F 81% 29.51 in 10.0 mi West 12.7 mph 20.7 mph N/A   Overcast